TimeCST,TemperatureF,Dew PointF,Humidity,Sea Level PressureIn,VisibilityMPH,Wind Direction,Wind SpeedMPH,Gust SpeedMPH,PrecipitationIn,Events,Conditions,WindDirDegrees,DateUTC
12:53 AM,33.1,28.9,85,29.54,10.0,WSW,10.4,-,N/A,,Overcast,250,2014-02-20 06:53:00
1:53 AM,34.0,30.0,85,29.55,10.0,West,4.6,-,N/A,,Overcast,260,2014-02-20 07:53:00
2:53 AM,30.9,28.0,89,29.55,10.0,West,3.5,-,N/A,,Overcast,260,2014-02-20 08:53:00
3:53 AM,32.0,28.9,88,29.55,10.0,West,3.5,-,N/A,,Overcast,280,2014-02-20 09:53:00
4:53 AM,32.0,28.0,85,29.55,10.0,Calm,Calm,-,N/A,,Mostly Cloudy,0,2014-02-20 10:53:00
5:53 AM,28.0,24.1,85,29.57,8.0,East,5.8,-,N/A,,Partly Cloudy,90,2014-02-20 11:53:00
6:53 AM,27.0,24.1,89,29.58,7.0,Calm,Calm,-,N/A,,Mostly Cloudy,0,2014-02-20 12:53:00
7:53 AM,27.0,23.0,85,29.59,5.0,NE,4.6,-,N/A,,Partly Cloudy,40,2014-02-20 13:53:00
8:53 AM,25.0,19.9,81,29.61,5.0,NNE,5.8,-,N/A,,Haze,20,2014-02-20 14:53:00
9:53 AM,24.1,19.9,84,29.62,8.0,North,11.5,-,N/A,,Clear,360,2014-02-20 15:53:00
10:35 AM,24.8,19.4,80,29.60,7.0,NNW,12.7,-,N/A,,Partly Cloudy,340,2014-02-20 16:35:00
10:53 AM,23.0,19.9,88,29.64,7.0,NNW,12.7,-,N/A,,Mostly Cloudy,340,2014-02-20 16:53:00
11:53 AM,23.0,19.0,85,29.67,6.0,North,17.3,-,N/A,,Overcast,350,2014-02-20 17:53:00
12:53 PM,23.0,19.0,85,29.67,9.0,NNW,18.4,-,N/A,,Overcast,340,2014-02-20 18:53:00
1:53 PM,21.9,18.0,85,29.68,3.0,NNW,19.6,-,N/A,,Overcast,340,2014-02-20 19:53:00
1:58 PM,21.2,17.6,86,29.64,1.8,NW,25.3,29.9,0.00,Snow,Light Snow,320,2014-02-20 19:58:00
2:13 PM,19.4,15.8,86,29.64,2.0,NNW,23.0,-,0.00,Snow,Light Snow,330,2014-02-20 20:13:00
2:23 PM,19.4,14.0,80,29.65,3.0,NNW,23.0,-,0.00,Snow,Light Snow,330,2014-02-20 20:23:00
2:48 PM,17.6,12.2,79,29.65,6.0,NW,24.2,28.8,0.00,Snow,Light Snow,320,2014-02-20 20:48:00
2:53 PM,18.0,10.9,74,29.70,7.0,NW,25.3,28.8,0.00,Snow,Light Snow,320,2014-02-20 20:53:00
3:53 PM,16.0,9.0,74,29.73,9.0,NNW,24.2,-,0.00,Snow,Light Snow,330,2014-02-20 21:53:00
4:44 PM,15.8,6.8,68,29.71,9.0,NNW,23.0,-,0.00,,Overcast,340,2014-02-20 22:44:00
4:53 PM,15.1,7.0,70,29.75,10.0,NNW,24.2,-,0.00,,Overcast,340,2014-02-20 22:53:00
5:53 PM,12.9,7.0,77,29.76,10.0,NNW,19.6,-,N/A,,Mostly Cloudy,340,2014-02-20 23:53:00
6:53 PM,12.9,7.0,77,29.75,9.0,NNW,13.8,-,N/A,,Mostly Cloudy,330,2014-02-21 00:53:00
7:30 PM,12.2,6.8,79,29.69,10.0,NW,20.7,28.8,N/A,,Scattered Clouds,320,2014-02-21 01:30:00
7:53 PM,12.9,6.1,74,29.74,10.0,NW,21.9,-,N/A,,Clear,320,2014-02-21 01:53:00
8:53 PM,10.9,3.9,73,29.75,10.0,NW,19.6,-,0.00,,Partly Cloudy,320,2014-02-21 02:53:00
9:53 PM,10.0,3.0,73,29.74,10.0,NW,19.6,-,N/A,,Clear,320,2014-02-21 03:53:00
10:43 PM,8.6,1.4,73,29.67,10.0,NNW,19.6,-,N/A,,Mostly Cloudy,330,2014-02-21 04:43:00
10:53 PM,8.1,1.9,76,29.73,10.0,NNW,17.3,-,N/A,,Overcast,330,2014-02-21 04:53:00
11:53 PM,5.0,1.0,84,29.72,10.0,NNW,12.7,-,N/A,,Overcast,340,2014-02-21 05:53:00